Vorticity
nan nan nan nan nan nan nan nan nan nan nan nan nan nan nan nan nan nan nan nan nan nan nan nan nan nan nan nan nan nan nan nan nan nan nan nan nan nan nan nan nan nan nan
nan 9 9 8 9 7 8 10 9 12 9 8 9 10 8 9 8 7 7 8 8 7 8 8 8 9 8 7 8 6 6 9 11 8 7 9 8 10 11 10 9 8 nan
nan 8 8 8 8 9 9 7 8 12 8 14 9 11 8 9 8 7 8 8 8 9 9 8 7 7 7 6 8 10 10 11 11 9 9 8 11 11 12 11 9 11 nan
nan 7 9 10 8 8 9 11 9 10 10 8 9 11 10 9 11 10 9 8 9 9 7 8 8 8 10 10 9 9 9 8 9 11 8 8 8 11 12 9 6 10 nan
nan 9 8 10 11 10 12 11 8 7 8 7 9 5 10 9 10 10 11 11 9 8 8 10 10 11 10 10 8 6 9 10 7 9 8 10 8 6 8 11 10 8 nan
nan 11 11 11 11 12 13 11 10 8 5 2 7 8 7 8 11 9 9 9 8 7 8 10 13 12 10 9 9 7 7 8 7 8 9 9 9 7 8 8 9 9 nan
nan 11 11 10 10 13 13 11 9 7 6 6 5 5 6 10 12 13 11 5 8 9 7 9 11 11 11 11 14 10 10 10 4 6 8 8 9 9 10 10 7 10 nan
nan 11 11 11 10 12 13 12 10 11 8 7 7 6 7 10 15 14 9 7 8 9 14 12 9 8 12 16 8 8 10 14 17 10 7 8 7 7 9 11 12 13 nan
nan 12 12 11 11 9 9 10 12 12 10 9 8 9 10 12 16 8 5 8 10 11 9 10 13 13 18 13 8 8 9 14 18 11 8 8 9 8 5 6 11 11 nan
nan 11 12 12 12 12 12 10 12 12 8 9 11 11 13 14 7 9 9 9 11 14 10 8 9 17 14 5 6 10 12 11 5 7 14 16 12 16 16 6 7 8 nan
nan 12 13 13 11 13 15 13 12 11 10 9 9 13 10 10 14 17 5 4 8 8 11 14 19 14 5 8 8 12 11 12 12 10 8 10 14 14 13 10 9 9 nan
nan 13 12 11 12 15 15 13 12 12 11 12 11 7 8 7 11 16 13 4 4 11 12 16 19 12 9 9 8 10 9 7 9 9 10 10 11 11 8 7 12 12 nan
nan 11 12 12 12 12 11 10 10 10 10 11 10 10 10 10 9 11 13 12 12 9 11 15 14 8 10 13 13 7 6 6 9 10 10 10 9 10 12 11 11 13 nan
nan 12 11 11 11 10 11 10 10 13 13 11 12 9 9 11 13 9 9 11 13 14 13 4 -1 4 7 17 20 6 4 7 9 12 12 10 10 10 11 12 11 12 nan
nan 9 9 11 10 3 5 16 18 11 17 19 11 10 14 14 15 13 17 18 11 13 10 9 8 7 7 6 5 9 10 10 9 9 10 10 10 10 11 10 11 11 nan
nan 9 10 10 10 10 7 1 3 14 18 19 15 13 11 17 20 14 13 13 14 13 9 8 10 10 10 11 11 9 12 12 9 8 10 10 10 10 11 11 12 10 nan
nan 10 10 11 11 10 11 9 1 1 5 8 13 16 21 18 8 8 9 8 8 6 7 10 11 11 12 11 10 10 10 9 13 11 9 11 11 11 10 11 12 11 nan
nan 11 13 9 9 10 11 7 8 11 8 3 7 13 12 12 11 10 8 2 5 6 9 12 13 11 11 10 11 11 11 10 10 11 11 11 10 10 10 11 10 11 nan
nan 12 7 10 11 11 12 10 11 11 11 10 7 7 7 9 9 8 5 5 9 12 13 10 11 12 13 11 11 10 9 9 11 12 12 10 11 10 11 10 11 12 nan
nan 8 14 15 13 12 11 13 12 11 11 10 9 11 11 6 7 8 9 12 9 11 11 11 12 12 12 11 10 11 11 11 10 11 10 10 10 10 10 10 11 11 nan
nan 6 12 14 11 11 11 11 11 11 11 10 10 15 13 6 9 11 11 10 10 11 11 12 11 12 11 10 10 11 12 11 11 11 10 10 10 11 10 10 10 11 nan
nan 11 11 9 10 12 9 10 11 10 11 10 10 11 10 11 10 11 11 11 11 11 12 11 11 10 9 11 13 12 11 11 10 10 10 10 10 12 10 11 11 12 nan
nan 10 9 10 7 10 12 9 10 12 11 10 13 10 8 10 11 11 10 10 11 11 11 11 11 10 12 11 11 11 10 11 10 10 11 11 10 11 11 10 11 11 nan
nan 12 9 9 11 8 11 10 8 8 15 14 11 10 12 12 11 10 10 11 10 11 10 10 10 12 11 11 11 11 13 9 10 10 9 11 11 8 12 11 10 11 nan
nan 11 11 11 11 12 10 12 12 10 11 11 11 11 11 12 12 12 11 10 10 11 10 11 12 12 10 9 9 15 12 9 7 14 13 7 11 12 11 10 11 11 nan
nan nan nan nan nan nan nan nan nan nan nan nan nan nan nan nan nan nan nan nan nan nan nan nan nan nan nan nan nan nan nan nan nan nan nan nan nan nan nan nan nan nan nan
CAPE
2449 3018 2941 2715 2845 3153 3158 2857 2293 1603 1191 942 881 359 493 216 199 330 215 39 114 118 37 180 356 481 164 63 62 64 69 58 38 1 4 44 38 133 128 139 98 85 57
2984 3207 2837 2943 2890 2852 3601 2886 2746 1871 1007 1006 819 714 368 248 218 321 142 4 20 17 111 312 424 275 417 472 176 196 117 121 100 115 101 29 278 399 91 185 154 65 73
2669 2366 2461 2770 2801 3175 3108 2759 1537 1297 788 780 718 666 447 320 242 280 332 224 126 83 219 364 412 470 474 216 246 137 90 78 132 91 106 79 31 40 162 444 161 351 92
1988 2368 3066 2930 2897 2805 3006 2392 1016 425 464 156 420 273 257 499 467 269 319 358 153 107 334 485 514 595 330 362 230 286 247 167 217 127 157 96 124 264 104 114 66 50 43
2635 2424 2877 3193 2853 2530 3017 1927 1003 590 529 202 98 166 147 414 209 731 485 180 153 329 426 515 587 785 433 217 149 254 210 150 154 107 91 67 113 99 220 74 58 68 300
2991 2760 3206 3658 3174 2733 2972 1661 735 294 253 18 6 0 5 97 1 10 115 156 279 482 673 727 702 311 208 30 0 0 1 109 135 116 75 134 331 183 120 98 105 60 58
2923 2969 3109 3413 3262 2992 2815 1746 974 532 296 1 0 0 14 17 0 0 0 53 229 503 822 1040 928 414 232 356 87 0 0 0 0 106 162 201 200 157 274 269 85 26 11
3049 3088 3145 3180 3059 2676 2170 1842 1436 699 281 256 40 27 50 64 27 0 0 128 343 718 1053 1059 1114 867 740 455 370 157 121 169 168 107 171 136 126 46 15 9 12 30 15
2781 3003 3001 2957 2824 2516 1917 1166 1139 790 378 125 107 226 181 344 2 0 1 380 400 1090 1107 746 694 534 42 0 48 103 128 117 10 0 0 0 0 0 0 9 5 24 23
2619 2922 3021 3021 2835 2272 1996 1715 946 471 327 124 328 311 412 481 62 0 0 217 1005 279 326 806 4 16 0 0 0 32 39 89 87 41 23 15 1 12 2 25 22 80 93
2526 2903 3169 3172 2776 2426 2280 1501 826 437 354 525 638 806 259 358 473 0 0 367 468 399 527 710 199 0 0 0 0 0 42 6 0 0 4 4 1 19 41 55 39 27 13
2992 3020 3195 2624 2129 1929 1166 859 574 748 1052 872 842 881 641 416 103 0 0 6 54 614 734 378 5 0 0 0 0 0 0 0 0 7 15 0 6 11 7 2 0 2 1
2895 2938 1977 1929 1538 1181 678 568 494 748 619 740 757 356 0 324 232 0 0 0 0 175 523 37 0 0 0 0 0 0 0 0 10 5 1 0 3 2 0 16 13 33 128
2162 1566 1380 977 794 694 497 499 738 794 681 942 561 359 264 399 416 192 0 2 0 12 0 0 0 0 0 0 0 0 0 2 2 0 0 0 0 0 0 0 0 0 26
1646 1473 1415 989 1182 970 1 146 560 518 130 666 259 28 293 280 521 246 149 270 267 30 50 84 29 106 94 74 26 9 5 4 1 0 0 0 0 0 0 0 0 14 18
1558 1507 1349 1208 1113 821 362 20 0 0 0 1 0 56 0 1 0 0 0 0 0 0 0 36 44 56 47 47 24 16 5 0 0 0 0 0 0 0 0 0 0 12 15
1240 1159 609 528 714 530 306 125 38 0 0 0 0 0 0 0 0 0 0 0 0 0 0 5 8 13 20 10 3 0 0 0 0 0 0 0 0 0 0 0 0 3 13
1099 379 687 564 489 433 448 522 142 102 70 0 0 0 0 0 0 0 0 0 0 0 0 0 5 7 4 0 0 0 0 0 0 0 0 0 0 0 0 0 0 0 12
795 457 250 144 103 74 209 198 201 143 440 34 0 0 0 0 0 0 0 0 0 0 0 0 0 0 0 0 0 0 0 0 0 0 0 0 0 0 0 0 0 0 0
132 11 14 142 231 489 593 501 417 486 540 193 12 0 0 0 0 0 0 0 0 0 0 0 0 0 0 0 0 0 0 0 0 0 0 0 0 0 0 0 0 0 1
121 195 9 381 283 233 223 211 215 286 276 270 243 69 0 16 8 11 6 0 0 0 0 0 0 0 0 0 0 0 0 0 0 0 0 0 0 0 0 0 0 0 0
281 202 142 103 134 151 179 206 252 259 249 245 199 0 0 0 34 18 4 0 0 0 0 0 0 0 0 0 0 0 0 0 0 0 0 0 0 0 0 0 0 0 0
170 147 197 278 255 32 182 251 285 302 265 216 120 49 0 0 21 17 10 2 0 0 0 0 0 0 0 0 0 0 0 0 0 0 0 0 0 0 0 0 0 0 0
170 194 236 210 139 126 146 212 243 27 187 99 47 35 37 22 24 15 13 8 1 0 0 0 0 0 0 0 0 0 0 0 0 0 0 0 0 0 0 0 0 0 0
158 140 130 133 109 86 162 142 165 40 30 47 42 42 39 34 32 14 30 13 6 3 0 0 0 0 0 0 0 0 0 0 0 0 0 0 0 0 0 0 0 0 0
38 18 11 5 3 5 9 19 22 31 32 40 42 31 34 47 49 44 40 27 12 10 5 0 0 0 0 0 0 0 0 0 0 0 0 0 0 0 0 0 0 0 0